Location: Bakov nad Jizerou
(50.4784°N, 14.9394°E)
Time: 14:09:35
(UTC+00:00)

SPOT 3 Rocket - Pass Details

Date: 16 June 2021
Orbit: 779 x 794 km, 98.7° (Epoch: 02 August)

Event Time Altitude Azimuth Distance (km) Brightness Sun altitude
Rises 19:51:29 0° 173° (S) 3,258 6.3 -5.1°
Reaches altitude 10° 19:53:49 10° 177° (S) 2,336 5.6 -5.4°
Maximum altitude 19:58:56 62° 258° (WSW) 882 4.0 -5.9°
Drops below altitude 10° 20:04:06 10° 339° (NNW) 2,363 7.4 -6.5°
Sets 20:06:28 0° 343° (NNW) 3,299 8.2 -6.7°
